Time,TemperatureF,DewpointF,PressureIn,WindDirection,WindDirectionDegrees,WindSpeedMPH,WindSpeedGustMPH,Humidity,HourlyPrecipIn,Conditions,Clouds,dailyrainin,SoftwareType,DateUTC
2013-07-23 00:00:00,74.3,73.7,29.78,SE,135,4.0,7.0,98,0.00,,---,0.00,VWS V14.01,2013-07-23 04:00:00,
2013-07-23 00:01:00,74.2,73.6,29.78,SSW,198,5.0,6.0,98,0.00,,---,0.00,VWS V14.01,2013-07-23 04:01:00,
2013-07-23 00:02:00,74.3,73.7,29.78,SE,142,5.0,6.0,98,0.00,,---,0.00,VWS V14.01,2013-07-23 04:02:00,
2013-07-23 00:07:00,74.3,74.0,29.78,SE,146,7.0,7.0,99,0.00,,---,0.00,VWS V14.01,2013-07-23 04:07:00,
2013-07-23 00:12:00,74.3,74.0,29.78,ESE,115,4.0,8.0,99,0.00,,---,0.00,VWS V14.01,2013-07-23 04:12:00,
2013-07-23 00:17:00,74.3,74.0,29.78,SE,143,3.0,8.0,99,0.00,,---,0.00,VWS V14.01,2013-07-23 04:17:00,
2013-07-23 00:22:00,74.2,73.9,29.77,ESE,119,3.0,8.0,99,0.00,,---,0.00,VWS V14.01,2013-07-23 04:22:00,
2013-07-23 00:27:00,74.2,73.9,29.77,South,181,4.0,8.0,99,0.00,,---,0.00,VWS V14.01,2013-07-23 04:27:00,
2013-07-23 00:30:00,74.2,73.9,29.77,SE,135,5.0,8.0,99,0.00,,---,0.00,VWS V14.01,2013-07-23 04:30:00,
2013-07-23 00:32:00,74.2,73.9,29.77,ESE,111,4.0,7.0,99,0.00,,---,0.00,VWS V14.01,2013-07-23 04:32:00,
2013-07-23 00:37:00,74.2,73.9,29.76,SSE,159,4.0,7.0,99,0.00,,---,0.00,VWS V14.01,2013-07-23 04:37:00,
2013-07-23 00:42:00,74.2,73.9,29.76,SSE,151,4.0,7.0,99,0.00,,---,0.00,VWS V14.01,2013-07-23 04:42:00,
2013-07-23 00:47:00,74.2,73.9,29.76,SSE,160,2.0,7.0,99,0.00,,---,0.00,VWS V14.01,2013-07-23 04:47:00,
2013-07-23 00:52:00,74.2,73.9,29.76,SSW,200,3.0,7.0,99,0.00,,---,0.00,VWS V14.01,2013-07-23 04:52:00,
2013-07-23 00:57:00,74.2,73.9,29.76,West,267,3.0,7.0,99,0.00,,---,0.00,VWS V14.01,2013-07-23 04:57:00,
2013-07-23 01:00:00,74.2,73.9,29.76,SSE,158,4.0,7.0,99,0.00,,---,0.00,VWS V14.01,2013-07-23 05:00:00,
2013-07-23 01:02:00,74.2,73.9,29.76,SSW,202,2.0,4.0,99,0.00,,---,0.00,VWS V14.01,2013-07-23 05:02:00,
2013-07-23 01:07:00,74.2,73.9,29.75,East,88,3.0,4.0,99,0.00,,---,0.00,VWS V14.01,2013-07-23 05:07:00,
2013-07-23 01:12:00,74.2,73.9,29.75,SSW,201,3.0,5.0,99,0.00,,---,0.00,VWS V14.01,2013-07-23 05:12:00,
2013-07-23 01:17:00,74.2,73.9,29.75,SW,219,3.0,5.0,99,0.00,,---,0.00,VWS V14.01,2013-07-23 05:17:00,
2013-07-23 01:22:00,74.2,73.9,29.75,ENE,78,6.0,7.0,99,0.00,,---,0.00,VWS V14.01,2013-07-23 05:22:00,
2013-07-23 01:27:00,74.2,73.9,29.75,SW,227,5.0,7.0,99,0.00,,---,0.00,VWS V14.01,2013-07-23 05:27:00,
2013-07-23 01:30:00,74.1,73.8,29.75,SSW,202,3.0,7.0,99,0.00,,---,0.00,VWS V14.01,2013-07-23 05:30:00,
2013-07-23 01:32:00,74.0,73.7,29.75,South,181,1.0,4.0,99,0.00,,---,0.00,VWS V14.01,2013-07-23 05:32:00,
2013-07-23 01:37:00,74.1,73.8,29.75,ESE,113,5.0,5.0,99,0.00,,---,0.00,VWS V14.01,2013-07-23 05:37:00,
2013-07-23 01:42:00,74.0,73.7,29.74,SSE,162,3.0,5.0,99,0.00,,---,0.00,VWS V14.01,2013-07-23 05:42:00,
2013-07-23 01:47:00,74.0,73.7,29.73,ESE,113,5.0,6.0,99,0.00,,---,0.00,VWS V14.01,2013-07-23 05:47:00,
2013-07-23 01:52:00,74.1,73.8,29.73,SSW,193,3.0,6.0,99,0.00,,---,0.00,VWS V14.01,2013-07-23 05:52:00,
2013-07-23 01:57:00,74.1,73.8,29.73,South,176,2.0,6.0,99,0.00,,---,0.00,VWS V14.01,2013-07-23 05:57:00,
2013-07-23 02:00:00,74.2,73.9,29.73,South,180,3.0,7.0,99,0.00,,---,0.00,VWS V14.01,2013-07-23 06:00:00,
2013-07-23 02:02:00,74.2,73.9,29.73,SE,137,3.0,5.0,99,0.00,,---,0.00,VWS V14.01,2013-07-23 06:02:00,
2013-07-23 02:07:00,74.3,74.0,29.73,South,182,2.0,6.0,99,0.00,,---,0.00,VWS V14.01,2013-07-23 06:07:00,
2013-07-23 02:12:00,74.2,73.9,29.73,South,181,2.0,6.0,99,0.00,,---,0.00,VWS V14.01,2013-07-23 06:12:00,
2013-07-23 02:17:00,74.1,73.8,29.73,South,172,2.0,6.0,99,0.00,,---,0.00,VWS V14.01,2013-07-23 06:17:00,
2013-07-23 02:22:00,74.1,73.8,29.72,SSE,160,2.0,6.0,99,0.00,,---,0.00,VWS V14.01,2013-07-23 06:22:00,
2013-07-23 02:27:00,74.0,73.7,29.73,SW,230,4.0,6.0,99,0.00,,---,0.00,VWS V14.01,2013-07-23 06:27:00,
2013-07-23 02:30:00,74.0,73.7,29.73,SSW,202,3.0,8.0,99,0.00,,---,0.00,VWS V14.01,2013-07-23 06:30:00,
2013-07-23 02:32:00,74.1,73.8,29.72,West,268,2.0,5.0,99,0.00,,---,0.00,VWS V14.01,2013-07-23 06:32:00,
2013-07-23 02:37:00,74.0,73.7,29.72,SSW,213,4.0,7.0,99,0.00,,---,0.00,VWS V14.01,2013-07-23 06:37:00,
2013-07-23 02:42:00,74.0,73.7,29.72,SSW,203,3.0,7.0,99,0.00,,---,0.00,VWS V14.01,2013-07-23 06:42:00,
2013-07-23 02:47:00,74.1,73.8,29.72,SW,231,1.0,7.0,99,0.00,,---,0.00,VWS V14.01,2013-07-23 06:47:00,
2013-07-23 02:52:00,74.0,73.7,29.71,WSW,248,3.0,7.0,99,0.00,,---,0.00,VWS V14.01,2013-07-23 06:52:00,
2013-07-23 02:57:00,74.0,73.7,29.71,SSE,156,5.0,7.0,99,0.00,,---,0.00,VWS V14.01,2013-07-23 06:57:00,
2013-07-23 03:00:00,74.1,73.8,29.72,SW,225,3.0,8.0,99,0.00,,---,0.00,VWS V14.01,2013-07-23 07:00:00,
2013-07-23 03:02:00,74.1,73.8,29.72,WSW,256,3.0,7.0,99,0.00,,---,0.00,VWS V14.01,2013-07-23 07:02:00,
2013-07-23 03:07:00,74.0,73.7,29.71,South,178,5.0,9.0,99,0.00,,---,0.00,VWS V14.01,2013-07-23 07:07:00,
2013-07-23 03:12:00,74.1,73.8,29.70,SSW,193,3.0,9.0,99,0.00,,---,0.00,VWS V14.01,2013-07-23 07:12:00,
2013-07-23 03:17:00,74.1,73.8,29.70,West,274,3.0,9.0,99,0.00,,---,0.00,VWS V14.01,2013-07-23 07:17:00,
2013-07-23 03:22:00,74.1,73.8,29.70,SW,224,4.0,9.0,99,0.00,,---,0.00,VWS V14.01,2013-07-23 07:22:00,
2013-07-23 03:27:00,74.1,73.8,29.69,WSW,254,3.0,9.0,99,0.00,,---,0.00,VWS V14.01,2013-07-23 07:27:00,
2013-07-23 03:30:00,74.0,73.7,29.69,SSW,202,4.0,9.0,99,0.00,,---,0.00,VWS V14.01,2013-07-23 07:30:00,
2013-07-23 03:32:00,74.1,73.8,29.70,SSW,210,3.0,6.0,99,0.00,,---,0.00,VWS V14.01,2013-07-23 07:32:00,
2013-07-23 03:37:00,74.0,73.7,29.70,WSW,241,6.0,9.0,99,0.00,,---,0.00,VWS V14.01,2013-07-23 07:37:00,
2013-07-23 03:42:00,74.1,73.8,29.70,SE,141,7.0,9.0,99,0.00,,---,0.00,VWS V14.01,2013-07-23 07:42:00,
2013-07-23 03:47:00,74.0,73.7,29.70,SE,134,6.0,11.0,99,0.00,,---,0.00,VWS V14.01,2013-07-23 07:47:00,
2013-07-23 03:52:00,74.0,73.7,29.70,SE,125,3.0,11.0,99,0.00,,---,0.00,VWS V14.01,2013-07-23 07:52:00,
2013-07-23 03:57:00,74.0,73.7,29.70,South,178,4.0,11.0,99,0.00,,---,0.00,VWS V14.01,2013-07-23 07:57:00,
2013-07-23 04:00:00,74.0,73.7,29.69,SSW,202,5.0,11.0,99,0.00,,---,0.00,VWS V14.01,2013-07-23 08:00:00,
2013-07-23 04:02:00,74.0,73.7,29.69,SSE,165,5.0,8.0,99,0.00,,---,0.00,VWS V14.01,2013-07-23 08:02:00,
2013-07-23 04:07:00,74.0,73.7,29.69,WSW,250,5.0,10.0,99,0.00,,---,0.00,VWS V14.01,2013-07-23 08:07:00,
2013-07-23 04:12:00,74.0,73.7,29.69,SW,222,1.0,10.0,99,0.00,,---,0.00,VWS V14.01,2013-07-23 08:12:00,
2013-07-23 04:17:00,73.8,73.5,29.69,WSW,252,6.0,10.0,99,0.00,,---,0.00,VWS V14.01,2013-07-23 08:17:00,
2013-07-23 04:22:00,73.7,73.4,29.69,West,266,3.0,10.0,99,0.00,,---,0.00,VWS V14.01,2013-07-23 08:22:00,
2013-07-23 04:27:00,73.7,73.4,29.68,ENE,77,6.0,10.0,99,0.00,,---,0.00,VWS V14.01,2013-07-23 08:27:00,
2013-07-23 04:30:00,73.7,73.4,29.68,SW,225,4.0,10.0,99,0.00,,---,0.00,VWS V14.01,2013-07-23 08:30:00,
2013-07-23 04:32:00,73.7,73.4,29.68,South,169,5.0,7.0,99,0.00,,---,0.00,VWS V14.01,2013-07-23 08:32:00,
2013-07-23 04:37:00,73.8,73.5,29.69,SSE,149,1.0,7.0,99,0.00,,---,0.00,VWS V14.01,2013-07-23 08:37:00,
2013-07-23 04:42:00,73.9,73.6,29.69,SW,217,7.0,11.0,99,0.00,,---,0.00,VWS V14.01,2013-07-23 08:42:00,
2013-07-23 04:47:00,73.9,73.6,29.68,NNE,31,4.0,15.0,99,0.00,,---,0.00,VWS V14.01,2013-07-23 08:47:00,
2013-07-23 04:53:00,73.7,73.1,29.68,South,190,5.0,15.0,98,0.00,,---,0.00,VWS V14.01,2013-07-23 08:53:00,
2013-07-23 04:58:00,73.7,73.1,29.68,SW,222,13.0,15.0,98,0.00,,---,0.00,VWS V14.01,2013-07-23 08:58:00,
2013-07-23 05:00:00,73.8,73.2,29.68,SSW,202,5.0,15.0,98,0.00,,---,0.00,VWS V14.01,2013-07-23 09:00:00,
2013-07-23 05:03:00,73.8,73.2,29.68,WSW,257,13.0,13.0,98,0.00,,---,0.00,VWS V14.01,2013-07-23 09:03:00,
2013-07-23 05:08:00,73.8,73.2,29.68,South,181,11.0,15.0,98,0.00,,---,0.00,VWS V14.01,2013-07-23 09:08:00,
2013-07-23 05:13:00,74.0,73.4,29.68,SSW,199,2.0,15.0,98,0.00,,---,0.00,VWS V14.01,2013-07-23 09:13:00,
2013-07-23 05:18:00,74.2,73.6,29.68,WSW,238,6.0,15.0,98,0.00,,---,0.00,VWS V14.01,2013-07-23 09:18:00,
2013-07-23 05:23:00,74.2,73.6,29.68,WSW,238,2.0,15.0,98,0.00,,---,0.00,VWS V14.01,2013-07-23 09:23:00,
2013-07-23 05:28:00,74.1,73.5,29.68,SW,232,3.0,15.0,98,0.00,,---,0.00,VWS V14.01,2013-07-23 09:28:00,
2013-07-23 05:30:00,74.1,73.5,29.68,SW,225,6.0,15.0,98,0.00,,---,0.00,VWS V14.01,2013-07-23 09:30:00,
2013-07-23 05:33:00,74.0,73.4,29.68,South,173,7.0,8.0,98,0.00,,---,0.00,VWS V14.01,2013-07-23 09:33:00,
2013-07-23 05:38:00,73.5,72.6,29.68,SE,141,4.0,10.0,97,0.00,,---,0.00,VWS V14.01,2013-07-23 09:38:00,
2013-07-23 05:43:00,73.3,72.4,29.69,SE,146,4.0,14.0,97,0.00,,---,0.00,VWS V14.01,2013-07-23 09:43:00,
2013-07-23 05:48:00,73.2,72.6,29.68,South,191,4.0,14.0,98,0.00,,---,0.00,VWS V14.01,2013-07-23 09:48:00,
2013-07-23 05:53:00,73.0,72.4,29.68,SE,144,8.0,14.0,98,0.00,,---,0.00,VWS V14.01,2013-07-23 09:53:00,
2013-07-23 05:58:00,73.1,72.5,29.69,SSE,155,3.0,14.0,98,0.00,,---,0.00,VWS V14.01,2013-07-23 09:58:00,
2013-07-23 06:00:00,73.2,72.6,29.69,SSW,202,5.0,14.0,98,0.00,,---,0.00,VWS V14.01,2013-07-23 10:00:00,
2013-07-23 06:03:00,73.3,72.7,29.69,SE,142,1.0,7.0,98,0.00,,---,0.00,VWS V14.01,2013-07-23 10:03:00,
2013-07-23 06:08:00,73.4,72.8,29.69,ENE,75,5.0,7.0,98,0.00,,---,0.00,VWS V14.01,2013-07-23 10:08:00,
2013-07-23 06:13:00,73.2,72.6,29.69,WSW,258,3.0,9.0,98,0.00,,---,0.00,VWS V14.01,2013-07-23 10:13:00,
2013-07-23 06:18:00,72.8,71.9,29.68,SSW,205,3.0,9.0,97,0.00,,---,0.00,VWS V14.01,2013-07-23 10:18:00,
2013-07-23 06:23:00,72.6,72.0,29.69,South,171,2.0,9.0,98,0.00,,---,0.00,VWS V14.01,2013-07-23 10:23:00,
2013-07-23 06:28:00,72.5,71.9,29.69,NNW,347,2.0,9.0,98,0.00,,---,0.00,VWS V14.01,2013-07-23 10:28:00,
2013-07-23 06:30:00,72.4,71.8,29.69,SSW,202,3.0,9.0,98,0.00,,---,0.00,VWS V14.01,2013-07-23 10:30:00,
2013-07-23 06:33:00,72.3,71.7,29.69,West,264,1.0,6.0,98,0.00,,---,0.00,VWS V14.01,2013-07-23 10:33:00,
2013-07-23 06:38:00,72.2,71.6,29.69,SW,217,5.0,6.0,98,0.00,,---,0.00,VWS V14.01,2013-07-23 10:38:00,
2013-07-23 06:43:00,72.1,71.5,29.69,South,184,4.0,8.0,98,0.00,,---,0.00,VWS V14.01,2013-07-23 10:43:00,
2013-07-23 06:48:00,72.2,71.6,29.69,South,174,4.0,8.0,98,0.00,,---,0.00,VWS V14.01,2013-07-23 10:48:00,
2013-07-23 06:53:00,72.7,72.4,29.68,WSW,241,1.0,8.0,99,0.00,,---,0.00,VWS V14.01,2013-07-23 10:53:00,
2013-07-23 06:58:00,72.5,71.9,29.68,WSW,238,1.0,8.0,98,0.00,,---,0.00,VWS V14.01,2013-07-23 10:58:00,
2013-07-23 07:00:00,72.4,71.8,29.68,SSW,202,3.0,8.0,98,0.00,,---,0.00,VWS V14.01,2013-07-23 11:00:00,
2013-07-23 07:03:00,72.4,71.8,29.68,SSW,198,1.0,4.0,98,0.00,,---,0.00,VWS V14.01,2013-07-23 11:03:00,
2013-07-23 07:08:00,72.7,72.1,29.68,SSW,207,3.0,6.0,98,0.00,,---,0.00,VWS V14.01,2013-07-23 11:08:00,
2013-07-23 07:13:00,72.8,72.2,29.68,SW,235,4.0,6.0,98,0.00,,---,0.00,VWS V14.01,2013-07-23 11:13:00,
2013-07-23 07:18:00,73.1,72.2,29.68,South,188,2.0,6.0,97,0.00,,---,0.00,VWS V14.01,2013-07-23 11:18:00,
2013-07-23 07:23:00,73.3,72.4,29.68,SSW,195,4.0,7.0,97,0.00,,---,0.00,VWS V14.01,2013-07-23 11:23:00,
2013-07-23 07:28:00,73.4,72.5,29.67,SW,219,3.0,7.0,97,0.00,,---,0.00,VWS V14.01,2013-07-23 11:28:00,
2013-07-23 07:30:00,73.4,72.5,29.67,SW,225,3.0,7.0,97,0.00,,---,0.00,VWS V14.01,2013-07-23 11:30:00,
2013-07-23 07:33:00,73.6,72.7,29.68,SSW,211,0.0,5.0,97,0.00,,---,0.00,VWS V14.01,2013-07-23 11:33:00,
2013-07-23 07:38:00,74.5,73.6,29.68,SSE,158,1.0,5.0,97,0.00,,---,0.00,VWS V14.01,2013-07-23 11:38:00,
2013-07-23 07:43:00,75.9,74.7,29.67,SSW,202,1.0,5.0,96,0.00,,---,0.00,VWS V14.01,2013-07-23 11:43:00,
2013-07-23 07:48:00,77.4,75.2,29.67,ESE,108,2.0,7.0,93,0.00,,---,0.00,VWS V14.01,2013-07-23 11:48:00,
2013-07-23 07:53:00,77.7,74.5,29.67,SE,144,4.0,7.0,90,0.00,,---,0.00,VWS V14.01,2013-07-23 11:53:00,
2013-07-23 07:58:00,78.4,75.2,29.67,WNW,283,1.0,7.0,90,0.00,,---,0.00,VWS V14.01,2013-07-23 11:58:00,
2013-07-23 08:00:00,78.5,74.7,29.67,SW,225,2.0,7.0,88,0.00,,---,0.00,VWS V14.01,2013-07-23 12:00:00,
2013-07-23 08:03:00,78.5,74.3,29.67,SW,220,3.0,6.0,87,0.00,,---,0.00,VWS V14.01,2013-07-23 12:03:00,
2013-07-23 08:08:00,78.3,74.1,29.67,South,189,2.0,7.0,87,0.00,,---,0.00,VWS V14.01,2013-07-23 12:08:00,
2013-07-23 08:13:00,77.9,73.7,29.67,SSW,199,3.0,7.0,87,0.00,,---,0.00,VWS V14.01,2013-07-23 12:13:00,
2013-07-23 08:14:00,77.9,73.7,29.67,SW,224,4.0,7.0,87,0.00,,---,0.00,VWS V14.01,2013-07-23 12:14:00,
2013-07-23 08:19:00,78.0,73.8,29.67,SSE,153,4.0,7.0,87,0.00,,---,0.00,VWS V14.01,2013-07-23 12:19:00,
2013-07-23 08:24:00,78.1,73.9,29.66,WSW,245,2.0,7.0,87,0.00,,---,0.00,VWS V14.01,2013-07-23 12:24:00,
2013-07-23 08:29:00,78.7,73.8,29.66,WNW,290,1.0,7.0,85,0.00,,---,0.00,VWS V14.01,2013-07-23 12:29:00,
2013-07-23 08:30:00,78.8,73.9,29.66,SW,225,3.0,7.0,85,0.00,,---,0.00,VWS V14.01,2013-07-23 12:30:00,
2013-07-23 08:34:00,79.0,74.5,29.66,West,271,3.0,4.0,86,0.00,,---,0.00,VWS V14.01,2013-07-23 12:34:00,
2013-07-23 08:39:00,79.2,74.3,29.66,SW,233,4.0,6.0,85,0.00,,---,0.00,VWS V14.01,2013-07-23 12:39:00,
2013-07-23 08:44:00,79.2,74.3,29.66,SW,233,4.0,7.0,85,0.00,,---,0.00,VWS V14.01,2013-07-23 12:44:00,
2013-07-23 08:49:00,78.9,73.7,29.66,SSW,210,5.0,9.0,84,0.00,,---,0.00,VWS V14.01,2013-07-23 12:49:00,
2013-07-23 08:54:00,78.9,73.7,29.66,SE,130,3.0,9.0,84,0.00,,---,0.00,VWS V14.01,2013-07-23 12:54:00,
2013-07-23 08:59:00,78.9,74.0,29.66,ESE,107,2.0,9.0,85,0.00,,---,0.00,VWS V14.01,2013-07-23 12:59:00,
2013-07-23 09:00:00,79.0,74.1,29.66,SW,225,3.0,10.0,85,0.00,,---,0.00,VWS V14.01,2013-07-23 13:00:00,
2013-07-23 09:04:00,79.1,74.2,29.66,East,89,7.0,11.0,85,0.00,,---,0.00,VWS V14.01,2013-07-23 13:04:00,
2013-07-23 09:09:00,79.4,74.2,29.66,West,280,5.0,11.0,84,0.00,,---,0.00,VWS V14.01,2013-07-23 13:09:00,
2013-07-23 09:14:00,79.7,74.1,29.66,SE,139,4.0,11.0,83,0.00,,---,0.00,VWS V14.01,2013-07-23 13:14:00,
2013-07-23 09:19:00,79.6,74.0,29.65,SW,222,8.0,11.0,83,0.00,,---,0.00,VWS V14.01,2013-07-23 13:19:00,
2013-07-23 09:24:00,79.7,74.1,29.65,SW,220,5.0,11.0,83,0.00,,---,0.00,VWS V14.01,2013-07-23 13:24:00,
2013-07-23 09:29:00,79.9,74.3,29.65,WNW,285,5.0,11.0,83,0.00,,---,0.00,VWS V14.01,2013-07-23 13:29:00,
2013-07-23 09:30:00,79.9,74.3,29.65,SSW,202,5.0,11.0,83,0.00,,---,0.00,VWS V14.01,2013-07-23 13:30:00,
2013-07-23 09:34:00,80.0,74.4,29.65,SSW,210,3.0,8.0,83,0.00,,---,0.00,VWS V14.01,2013-07-23 13:34:00,
2013-07-23 09:39:00,80.2,74.2,29.66,SSW,195,3.0,11.0,82,0.00,,---,0.00,VWS V14.01,2013-07-23 13:39:00,
2013-07-23 09:44:00,80.3,74.3,29.65,NW,323,5.0,11.0,82,0.00,,---,0.00,VWS V14.01,2013-07-23 13:44:00,
2013-07-23 09:49:00,80.5,74.5,29.66,NE,56,6.0,12.0,82,0.00,,---,0.00,VWS V14.01,2013-07-23 13:49:00,
2013-07-23 09:54:00,80.5,74.1,29.66,WSW,245,8.0,12.0,81,0.00,,---,0.00,VWS V14.01,2013-07-23 13:54:00,
2013-07-23 09:59:00,80.7,74.3,29.66,NNE,32,5.0,12.0,81,0.00,,---,0.00,VWS V14.01,2013-07-23 13:59:00,
2013-07-23 10:00:00,80.7,74.3,29.66,SW,225,6.0,13.0,81,0.00,,---,0.00,VWS V14.01,2013-07-23 14:00:00,
2013-07-23 10:04:00,80.6,73.9,29.66,NE,35,4.0,11.0,80,0.00,,---,0.00,VWS V14.01,2013-07-23 14:04:00,
2013-07-23 10:09:00,80.4,74.0,29.66,SSW,211,5.0,11.0,81,0.00,,---,0.00,VWS V14.01,2013-07-23 14:09:00,
2013-07-23 10:14:00,80.4,74.0,29.66,South,174,3.0,11.0,81,0.00,,---,0.00,VWS V14.01,2013-07-23 14:14:00,
2013-07-23 10:19:00,80.7,74.3,29.66,SW,235,4.0,11.0,81,0.00,,---,0.00,VWS V14.01,2013-07-23 14:19:00,
2013-07-23 10:24:00,80.9,74.5,29.66,South,190,2.0,11.0,81,0.00,,---,0.00,VWS V14.01,2013-07-23 14:24:00,
2013-07-23 10:29:00,81.4,74.6,29.66,SE,141,2.0,11.0,80,0.00,,---,0.00,VWS V14.01,2013-07-23 14:29:00,
2013-07-23 10:30:00,81.4,74.6,29.65,SSW,202,5.0,11.0,80,0.00,,---,0.00,VWS V14.01,2013-07-23 14:30:00,
2013-07-23 10:34:00,81.4,74.6,29.65,ENE,67,3.0,6.0,80,0.00,,---,0.00,VWS V14.01,2013-07-23 14:34:00,
2013-07-23 10:39:00,81.3,74.9,29.66,SSW,204,6.0,9.0,81,0.00,,---,0.00,VWS V14.01,2013-07-23 14:39:00,
2013-07-23 10:44:00,81.0,74.6,29.66,WSW,250,3.0,9.0,81,0.00,,---,0.00,VWS V14.01,2013-07-23 14:44:00,
2013-07-23 10:49:00,80.8,74.4,29.66,SE,124,2.0,11.0,81,0.00,,---,0.00,VWS V14.01,2013-07-23 14:49:00,
2013-07-23 10:54:00,80.7,74.3,29.66,WNW,283,8.0,11.0,81,0.00,,---,0.00,VWS V14.01,2013-07-23 14:54:00,
2013-07-23 10:59:00,80.5,74.5,29.65,ESE,115,8.0,12.0,82,0.00,,---,0.00,VWS V14.01,2013-07-23 14:59:00,
2013-07-23 11:00:00,80.6,75.0,29.65,SW,225,6.0,12.0,83,0.00,,---,0.00,VWS V14.01,2013-07-23 15:00:00,
2013-07-23 11:04:00,80.9,74.9,29.65,SSW,200,3.0,9.0,82,0.00,,---,0.00,VWS V14.01,2013-07-23 15:04:00,
2013-07-23 11:09:00,81.4,75.0,29.65,West,271,6.0,9.0,81,0.00,,---,0.00,VWS V14.01,2013-07-23 15:09:00,
2013-07-23 11:14:00,81.5,74.7,29.65,South,179,4.0,9.0,80,0.00,,---,0.00,VWS V14.01,2013-07-23 15:14:00,
2013-07-23 11:19:00,81.2,74.8,29.65,WSW,243,2.0,9.0,81,0.00,,---,0.00,VWS V14.01,2013-07-23 15:19:00,
2013-07-23 11:24:00,81.4,75.0,29.65,SSW,207,5.0,10.0,81,0.00,,---,0.00,VWS V14.01,2013-07-23 15:24:00,
2013-07-23 11:29:00,81.4,74.6,29.65,ESE,117,4.0,10.0,80,0.00,,---,0.00,VWS V14.01,2013-07-23 15:29:00,
2013-07-23 11:30:00,81.4,74.6,29.65,SW,225,5.0,10.0,80,0.00,,---,0.00,VWS V14.01,2013-07-23 15:30:00,
2013-07-23 11:34:00,81.3,74.9,29.65,SSW,204,6.0,10.0,81,0.00,,---,0.00,VWS V14.01,2013-07-23 15:34:00,
2013-07-23 11:39:00,81.4,75.0,29.65,West,271,4.0,11.0,81,0.00,,---,0.00,VWS V14.01,2013-07-23 15:39:00,
2013-07-23 11:44:00,81.7,75.3,29.65,WNW,282,7.0,11.0,81,0.00,,---,0.00,VWS V14.01,2013-07-23 15:44:00,
2013-07-23 11:49:00,81.9,75.1,29.65,SSW,213,6.0,11.0,80,0.00,,---,0.00,VWS V14.01,2013-07-23 15:49:00,
2013-07-23 11:54:00,82.1,75.3,29.65,SSW,207,2.0,11.0,80,0.00,,---,0.00,VWS V14.01,2013-07-23 15:54:00,
2013-07-23 11:59:00,82.1,75.3,29.65,South,188,7.0,11.0,80,0.00,,---,0.00,VWS V14.01,2013-07-23 15:59:00,
2013-07-23 12:00:00,82.2,75.0,29.65,SSW,202,6.0,12.0,79,0.00,,---,0.00,VWS V14.01,2013-07-23 16:00:00,
2013-07-23 12:04:00,82.6,75.1,29.65,WSW,239,4.0,7.0,78,0.00,,---,0.00,VWS V14.01,2013-07-23 16:04:00,
2013-07-23 12:09:00,82.7,75.2,29.65,SSE,152,3.0,10.0,78,0.00,,---,0.00,VWS V14.01,2013-07-23 16:09:00,
2013-07-23 12:14:00,82.5,74.9,29.65,South,184,6.0,10.0,78,0.00,,---,0.00,VWS V14.01,2013-07-23 16:14:00,
2013-07-23 12:19:00,81.4,74.6,29.65,South,176,3.0,13.0,80,0.00,,---,0.00,VWS V14.01,2013-07-23 16:19:00,
2013-07-23 12:24:00,81.0,74.6,29.65,South,188,2.0,13.0,81,0.00,,---,0.00,VWS V14.01,2013-07-23 16:24:00,
2013-07-23 12:29:00,80.7,74.3,29.65,SW,218,2.0,13.0,81,0.00,,---,0.00,VWS V14.01,2013-07-23 16:29:00,
2013-07-23 12:30:00,80.5,74.5,29.65,SSW,202,4.0,13.0,82,0.00,,---,0.00,VWS V14.01,2013-07-23 16:30:00,
2013-07-23 12:34:00,81.1,75.1,29.65,SW,215,3.0,7.0,82,0.00,,---,0.00,VWS V14.01,2013-07-23 16:34:00,
2013-07-23 12:39:00,81.2,74.8,29.65,SSW,200,6.0,8.0,81,0.00,,---,0.00,VWS V14.01,2013-07-23 16:39:00,
2013-07-23 12:44:00,80.8,74.8,29.65,West,276,2.0,8.0,82,0.00,,---,0.00,VWS V14.01,2013-07-23 16:44:00,
2013-07-23 12:49:00,82.6,75.8,29.65,WSW,239,4.0,8.0,80,0.00,,---,0.00,VWS V14.01,2013-07-23 16:49:00,
2013-07-23 12:54:00,83.0,75.4,29.64,SW,217,3.0,8.0,78,0.00,,---,0.00,VWS V14.01,2013-07-23 16:54:00,
2013-07-23 12:59:00,81.7,74.9,29.64,WSW,245,2.0,10.0,80,0.00,,---,0.00,VWS V14.01,2013-07-23 16:59:00,
2013-07-23 13:00:00,81.4,74.6,29.64,SSW,202,4.0,10.0,80,0.00,,---,0.00,VWS V14.01,2013-07-23 17:00:00,
2013-07-23 13:04:00,81.5,75.1,29.64,SW,220,5.0,7.0,81,0.00,,---,0.00,VWS V14.01,2013-07-23 17:04:00,
2013-07-23 13:09:00,83.4,75.8,29.64,SSW,202,7.0,8.0,78,0.00,,---,0.00,VWS V14.01,2013-07-23 17:09:00,
2013-07-23 13:14:00,84.5,76.1,29.64,North,10,5.0,9.0,76,0.00,,---,0.00,VWS V14.01,2013-07-23 17:14:00,
2013-07-23 13:19:00,84.0,75.2,29.64,WSW,257,0.0,9.0,75,0.00,,---,0.00,VWS V14.01,2013-07-23 17:19:00,
2013-07-23 13:24:00,81.9,74.8,29.66,West,275,9.0,14.0,79,0.00,,---,0.00,VWS V14.01,2013-07-23 17:24:00,
2013-07-23 13:29:00,78.2,72.6,29.65,NNW,329,14.0,19.0,83,0.14,,---,0.14,VWS V14.01,2013-07-23 17:29:00,
2013-07-23 13:30:00,76.7,72.2,29.65,SW,225,6.0,21.0,86,0.00,,---,0.25,VWS V14.01,2013-07-23 17:30:00,
2013-07-23 13:34:00,74.8,72.0,29.65,ESE,105,12.0,14.0,91,0.40,,---,0.40,VWS V14.01,2013-07-23 17:34:00,
2013-07-23 13:39:00,73.4,71.3,29.65,NW,321,6.0,14.0,93,0.53,,---,0.53,VWS V14.01,2013-07-23 17:39:00,
2013-07-23 13:45:00,72.4,70.6,29.65,NNW,329,2.0,14.0,94,0.60,,---,0.60,VWS V14.01,2013-07-23 17:45:00,
2013-07-23 13:50:00,72.3,71.1,29.65,WNW,285,4.0,14.0,96,0.84,,---,0.84,VWS V14.01,2013-07-23 17:50:00,
2013-07-23 13:55:00,72.7,71.8,29.65,SE,145,1.0,14.0,97,0.87,,---,0.87,VWS V14.01,2013-07-23 17:55:00,
2013-07-23 14:00:00,72.9,72.0,29.65,NW,304,2.0,14.0,97,0.90,,---,0.90,VWS V14.01,2013-07-23 18:00:00,
2013-07-23 14:05:00,73.0,72.1,29.65,SSW,210,1.0,1.0,97,0.92,,---,0.92,VWS V14.01,2013-07-23 18:05:00,
2013-07-23 14:10:00,73.0,71.8,29.64,East,93,2.0,7.0,96,0.98,,---,0.98,VWS V14.01,2013-07-23 18:10:00,
2013-07-23 14:15:00,74.0,72.8,29.64,SE,145,1.0,7.0,96,0.98,,---,0.98,VWS V14.01,2013-07-23 18:15:00,
2013-07-23 14:20:00,76.2,75.3,29.63,ESE,118,0.0,7.0,97,0.98,,---,0.98,VWS V14.01,2013-07-23 18:20:00,
2013-07-23 14:25:00,77.6,76.7,29.63,South,191,0.0,7.0,97,0.98,,---,0.98,VWS V14.01,2013-07-23 18:25:00,
2013-07-23 14:30:00,78.6,76.7,29.63,SW,222,2.0,7.0,94,0.98,,---,0.98,VWS V14.01,2013-07-23 18:30:00,
2013-07-23 14:35:00,79.0,76.8,29.62,ESE,121,1.0,3.0,93,0.73,,---,0.98,VWS V14.01,2013-07-23 18:35:00,
2013-07-23 14:40:00,79.3,76.8,29.62,WSW,249,2.0,4.0,92,0.73,,---,0.98,VWS V14.01,2013-07-23 18:40:00,
2013-07-23 14:45:00,79.7,76.8,29.62,South,179,3.0,6.0,91,0.73,,---,0.98,VWS V14.01,2013-07-23 18:45:00,
2013-07-23 14:50:00,79.6,76.4,29.63,SW,232,5.0,9.0,90,0.73,,---,0.98,VWS V14.01,2013-07-23 18:50:00,
2013-07-23 14:56:00,78.7,75.2,29.63,ESE,111,1.0,9.0,89,0.73,,---,0.98,VWS V14.01,2013-07-23 18:56:00,
2013-07-23 15:00:00,79.1,75.9,29.63,SSW,202,2.0,9.0,90,0.00,,---,0.98,VWS V14.01,2013-07-23 19:00:00,
2013-07-23 15:01:00,79.1,75.9,29.63,WSW,248,0.0,9.0,90,0.73,,---,0.98,VWS V14.01,2013-07-23 19:01:00,
2013-07-23 15:06:00,78.8,75.3,29.62,SW,214,3.0,4.0,89,0.07,,---,0.98,VWS V14.01,2013-07-23 19:06:00,
2013-07-23 15:11:00,79.2,75.7,29.62,East,89,3.0,4.0,89,0.07,,---,0.98,VWS V14.01,2013-07-23 19:11:00,
2013-07-23 15:16:00,78.1,73.9,29.62,WSW,253,4.0,6.0,87,0.07,,---,0.98,VWS V14.01,2013-07-23 19:16:00,
2013-07-23 15:21:00,76.9,73.4,29.61,SSE,160,2.0,6.0,89,0.07,,---,0.98,VWS V14.01,2013-07-23 19:21:00,
2013-07-23 15:26:00,76.3,73.2,29.61,NE,50,4.0,6.0,90,0.07,,---,0.98,VWS V14.01,2013-07-23 19:26:00,
2013-07-23 15:30:00,75.9,73.1,29.61,SW,225,3.0,7.0,91,0.00,,---,0.98,VWS V14.01,2013-07-23 19:30:00,
2013-07-23 15:31:00,75.9,73.1,29.61,NNW,328,2.0,6.0,91,0.07,,---,0.98,VWS V14.01,2013-07-23 19:31:00,
2013-07-23 15:36:00,75.8,73.6,29.61,WSW,248,6.0,8.0,93,0.00,,---,0.98,VWS V14.01,2013-07-23 19:36:00,
2013-07-23 15:41:00,76.0,74.2,29.62,ESE,111,3.0,8.0,94,0.01,,---,0.99,VWS V14.01,2013-07-23 19:41:00,
2013-07-23 15:46:00,76.9,75.1,29.61,ESE,121,6.0,8.0,94,0.02,,---,1.00,VWS V14.01,2013-07-23 19:46:00,
2013-07-23 15:51:00,77.0,74.8,29.61,North,355,2.0,8.0,93,0.02,,---,1.00,VWS V14.01,2013-07-23 19:51:00,
2013-07-23 15:56:00,76.3,74.4,29.61,SSW,209,2.0,8.0,94,0.02,,---,1.00,VWS V14.01,2013-07-23 19:56:00,
2013-07-23 16:00:00,75.9,73.7,29.61,SSW,202,4.0,9.0,93,0.00,,---,1.00,VWS V14.01,2013-07-23 20:00:00,
2013-07-23 16:01:00,75.9,74.1,29.61,WNW,291,3.0,3.0,94,0.02,,---,1.00,VWS V14.01,2013-07-23 20:01:00,
2013-07-23 16:06:00,76.3,74.4,29.60,West,272,2.0,6.0,94,0.02,,---,1.00,VWS V14.01,2013-07-23 20:06:00,
2013-07-23 16:12:00,76.9,75.1,29.60,SSE,160,2.0,6.0,94,0.02,,---,1.00,VWS V14.01,2013-07-23 20:12:00,
2013-07-23 16:17:00,77.4,75.2,29.60,NE,46,4.0,6.0,93,0.02,,---,1.00,VWS V14.01,2013-07-23 20:17:00,
2013-07-23 16:22:00,77.7,75.2,29.59,NE,55,4.0,6.0,92,0.02,,---,1.00,VWS V14.01,2013-07-23 20:22:00,
2013-07-23 16:27:00,78.0,75.5,29.59,ESE,108,2.0,6.0,92,0.02,,---,1.00,VWS V14.01,2013-07-23 20:27:00,
2013-07-23 16:30:00,78.3,75.5,29.59,South,180,2.0,7.0,91,0.00,,---,1.00,VWS V14.01,2013-07-23 20:30:00,
2013-07-23 16:32:00,78.3,75.5,29.59,SW,219,2.0,3.0,91,0.02,,---,1.00,VWS V14.01,2013-07-23 20:32:00,
2013-07-23 16:37:00,78.5,75.3,29.59,SW,214,1.0,6.0,90,0.02,,---,1.00,VWS V14.01,2013-07-23 20:37:00,
2013-07-23 16:42:00,78.6,75.1,29.59,SSW,196,1.0,6.0,89,0.02,,---,1.00,VWS V14.01,2013-07-23 20:42:00,
2013-07-23 16:48:00,78.7,75.2,29.59,WSW,247,3.0,8.0,89,0.02,,---,1.00,VWS V14.01,2013-07-23 20:48:00,
2013-07-23 16:53:00,78.7,75.2,29.59,SE,145,4.0,9.0,89,0.02,,---,1.00,VWS V14.01,2013-07-23 20:53:00,
2013-07-23 16:58:00,78.9,75.1,29.59,SSW,212,2.0,9.0,88,0.02,,---,1.00,VWS V14.01,2013-07-23 20:58:00,
2013-07-23 17:00:00,79.1,75.2,29.59,SW,225,3.0,9.0,88,0.00,,---,1.00,VWS V14.01,2013-07-23 21:00:00,
2013-07-23 17:03:00,79.0,75.2,29.59,WSW,250,4.0,6.0,88,0.00,,---,1.00,VWS V14.01,2013-07-23 21:03:00,
2013-07-23 17:08:00,79.0,75.2,29.59,SE,142,3.0,7.0,88,0.00,,---,1.00,VWS V14.01,2013-07-23 21:08:00,
2013-07-23 17:13:00,78.7,74.5,29.59,SSE,149,4.0,8.0,87,0.00,,---,1.00,VWS V14.01,2013-07-23 21:13:00,
2013-07-23 17:18:00,78.0,74.2,29.59,SE,134,9.0,9.0,88,0.00,,---,1.00,VWS V14.01,2013-07-23 21:18:00,
2013-07-23 17:23:00,77.9,74.1,29.59,SW,221,6.0,11.0,88,0.00,,---,1.00,VWS V14.01,2013-07-23 21:23:00,
2013-07-23 17:28:00,77.1,73.6,29.59,SE,144,5.0,11.0,89,0.00,,---,1.00,VWS V14.01,2013-07-23 21:28:00,
2013-07-23 17:30:00,77.3,74.1,29.59,SSW,202,5.0,12.0,90,0.00,,---,1.00,VWS V14.01,2013-07-23 21:30:00,
2013-07-23 17:33:00,77.6,74.4,29.59,SSW,200,9.0,10.0,90,0.00,,---,1.00,VWS V14.01,2013-07-23 21:33:00,
2013-07-23 17:38:00,78.5,74.7,29.59,SW,232,7.0,10.0,88,0.00,,---,1.00,VWS V14.01,2013-07-23 21:38:00,
2013-07-23 17:43:00,79.0,74.5,29.59,SW,214,3.0,11.0,86,0.00,,---,1.00,VWS V14.01,2013-07-23 21:43:00,
2013-07-23 17:48:00,79.3,74.4,29.59,SSE,167,3.0,11.0,85,0.00,,---,1.00,VWS V14.01,2013-07-23 21:48:00,
2013-07-23 17:53:00,78.9,74.4,29.58,SSW,199,3.0,11.0,86,0.00,,---,1.00,VWS V14.01,2013-07-23 21:53:00,
2013-07-23 17:58:00,79.0,74.8,29.58,SW,223,3.0,11.0,87,0.00,,---,1.00,VWS V14.01,2013-07-23 21:58:00,
2013-07-23 18:00:00,79.5,74.9,29.58,SSW,202,5.0,12.0,86,0.00,,---,1.00,VWS V14.01,2013-07-23 22:00:00,
2013-07-23 18:03:00,80.2,75.3,29.58,SSW,207,4.0,8.0,85,0.00,,---,1.00,VWS V14.01,2013-07-23 22:03:00,
2013-07-23 18:09:00,81.6,74.8,29.58,SW,234,5.0,9.0,80,0.00,,---,1.00,VWS V14.01,2013-07-23 22:09:00,
2013-07-23 18:14:00,82.8,74.5,29.58,SW,219,7.0,11.0,76,0.00,,---,1.00,VWS V14.01,2013-07-23 22:14:00,
2013-07-23 18:19:00,83.2,74.1,29.59,SSW,212,5.0,11.0,74,0.00,,---,1.00,VWS V14.01,2013-07-23 22:19:00,
2013-07-23 18:24:00,83.9,74.3,29.59,WSW,245,7.0,11.0,73,0.00,,---,1.00,VWS V14.01,2013-07-23 22:24:00,
2013-07-23 18:29:00,84.1,74.1,29.59,SW,235,3.0,11.0,72,0.00,,---,1.00,VWS V14.01,2013-07-23 22:29:00,
2013-07-23 18:30:00,82.8,74.1,29.59,SW,225,5.0,11.0,75,0.00,,---,1.00,VWS V14.01,2013-07-23 22:30:00,
2013-07-23 18:34:00,81.5,74.0,29.59,SW,221,3.0,8.0,78,0.00,,---,1.00,VWS V14.01,2013-07-23 22:34:00,
2013-07-23 18:39:00,79.7,73.7,29.59,SW,221,8.0,10.0,82,0.00,,---,1.00,VWS V14.01,2013-07-23 22:39:00,
2013-07-23 18:44:00,78.7,73.5,29.59,SSW,209,4.0,10.0,84,0.00,,---,1.00,VWS V14.01,2013-07-23 22:44:00,
2013-07-23 18:49:00,78.0,73.1,29.59,East,80,3.0,10.0,85,0.00,,---,1.00,VWS V14.01,2013-07-23 22:49:00,
2013-07-23 18:54:00,77.4,72.9,29.59,South,175,6.0,10.0,86,0.00,,---,1.00,VWS V14.01,2013-07-23 22:54:00,
2013-07-23 18:59:00,76.9,73.1,29.59,SW,217,6.0,10.0,88,0.00,,---,1.00,VWS V14.01,2013-07-23 22:59:00,
2013-07-23 19:00:00,77.0,73.2,29.59,SSW,202,5.0,11.0,88,0.00,,---,1.00,VWS V14.01,2013-07-23 23:00:00,
2013-07-23 19:04:00,77.2,73.4,29.59,SSW,206,7.0,8.0,88,0.00,,---,1.00,VWS V14.01,2013-07-23 23:04:00,
2013-07-23 19:09:00,77.2,73.0,29.59,WNW,303,1.0,11.0,87,0.00,,---,1.00,VWS V14.01,2013-07-23 23:09:00,
2013-07-23 19:14:00,77.0,73.2,29.59,South,187,4.0,11.0,88,0.00,,---,1.00,VWS V14.01,2013-07-23 23:14:00,
2013-07-23 19:20:00,77.1,72.9,29.59,South,191,5.0,11.0,87,0.00,,---,1.00,VWS V14.01,2013-07-23 23:20:00,
2013-07-23 19:25:00,76.7,72.9,29.59,SW,226,7.0,11.0,88,0.00,,---,1.00,VWS V14.01,2013-07-23 23:25:00,
2013-07-23 19:30:00,76.2,72.4,29.59,SE,139,4.0,11.0,88,0.00,,---,1.00,VWS V14.01,2013-07-23 23:30:00,
2013-07-23 19:36:00,76.4,72.9,29.60,SSE,148,2.0,8.0,89,0.00,,---,1.00,VWS V14.01,2013-07-23 23:36:00,
2013-07-23 19:41:00,77.1,73.3,29.60,ESE,112,2.0,8.0,88,0.00,,---,1.00,VWS V14.01,2013-07-23 23:41:00,
2013-07-23 19:46:00,77.6,73.4,29.60,SE,126,0.0,8.0,87,0.00,,---,1.00,VWS V14.01,2013-07-23 23:46:00,
2013-07-23 19:51:00,77.6,73.4,29.60,WSW,238,0.0,8.0,87,0.00,,---,1.00,VWS V14.01,2013-07-23 23:51:00,
2013-07-23 19:56:00,78.0,73.1,29.60,SW,218,0.0,8.0,85,0.00,,---,1.00,VWS V14.01,2013-07-23 23:56:00,
2013-07-23 20:00:00,78.0,73.5,29.60,SSW,202,1.0,8.0,86,0.00,,---,1.00,VWS V14.01,2013-07-24 00:00:00,
2013-07-23 20:01:00,78.0,73.5,29.60,SW,224,0.0,8.0,86,0.00,,---,1.00,VWS V14.01,2013-07-24 00:01:00,
2013-07-23 20:06:00,79.0,73.8,29.60,SW,236,0.0,6.0,84,0.00,,---,1.00,VWS V14.01,2013-07-24 00:06:00,
2013-07-23 20:11:00,79.4,73.8,29.60,WSW,255,5.0,6.0,83,0.00,,---,1.00,VWS V14.01,2013-07-24 00:11:00,
2013-07-23 20:16:00,79.5,73.9,29.61,SSW,211,5.0,6.0,83,0.00,,---,1.00,VWS V14.01,2013-07-24 00:16:00,
2013-07-23 20:21:00,79.6,74.0,29.60,SW,232,3.0,6.0,83,0.00,,---,1.00,VWS V14.01,2013-07-24 00:21:00,
2013-07-23 20:26:00,79.8,74.2,29.61,SW,218,2.0,6.0,83,0.00,,---,1.00,VWS V14.01,2013-07-24 00:26:00,
2013-07-23 20:30:00,79.0,73.4,29.61,SW,225,2.0,6.0,83,0.00,,---,1.00,VWS V14.01,2013-07-24 00:30:00,
2013-07-23 20:31:00,79.0,73.4,29.61,SSW,212,2.0,6.0,83,0.00,,---,1.00,VWS V14.01,2013-07-24 00:31:00,
2013-07-23 20:36:00,77.6,72.7,29.61,South,179,2.0,3.0,85,0.00,,---,1.00,VWS V14.01,2013-07-24 00:36:00,
2013-07-23 20:41:00,76.8,73.0,29.61,SW,219,1.0,3.0,88,0.00,,---,1.00,VWS V14.01,2013-07-24 00:41:00,
2013-07-23 20:46:00,76.8,73.0,29.61,WSW,237,0.0,3.0,88,0.00,,---,1.00,VWS V14.01,2013-07-24 00:46:00,
2013-07-23 20:51:00,77.2,73.4,29.62,SSW,203,1.0,4.0,88,0.00,,---,1.00,VWS V14.01,2013-07-24 00:51:00,
2013-07-23 20:56:00,77.6,72.7,29.62,West,264,2.0,5.0,85,0.00,,---,1.00,VWS V14.01,2013-07-24 00:56:00,
2013-07-23 21:00:00,77.3,73.1,29.62,SW,225,1.0,6.0,87,0.00,,---,1.00,VWS V14.01,2013-07-24 01:00:00,
2013-07-23 21:02:00,77.4,73.2,29.62,WSW,241,2.0,4.0,87,0.00,,---,1.00,VWS V14.01,2013-07-24 01:02:00,
2013-07-23 21:07:00,78.6,73.7,29.62,WSW,248,7.0,11.0,85,0.00,,---,1.00,VWS V14.01,2013-07-24 01:07:00,
2013-07-23 21:12:00,79.6,74.0,29.62,SW,223,5.0,12.0,83,0.00,,---,1.00,VWS V14.01,2013-07-24 01:12:00,
2013-07-23 21:17:00,79.6,73.6,29.62,SW,222,6.0,12.0,82,0.00,,---,1.00,VWS V14.01,2013-07-24 01:17:00,
2013-07-23 21:22:00,79.5,73.5,29.62,WSW,240,7.0,12.0,82,0.00,,---,1.00,VWS V14.01,2013-07-24 01:22:00,
2013-07-23 21:27:00,79.2,73.6,29.63,SW,233,6.0,12.0,83,0.00,,---,1.00,VWS V14.01,2013-07-24 01:27:00,
2013-07-23 21:30:00,79.1,73.5,29.63,WSW,248,6.0,12.0,83,0.00,,---,1.00,VWS V14.01,2013-07-24 01:30:00,
2013-07-23 21:32:00,79.1,73.1,29.63,SW,224,6.0,9.0,82,0.00,,---,1.00,VWS V14.01,2013-07-24 01:32:00,
2013-07-23 21:37:00,79.0,73.0,29.63,WSW,248,8.0,9.0,82,0.00,,---,1.00,VWS V14.01,2013-07-24 01:37:00,
2013-07-23 21:42:00,78.8,72.8,29.63,WSW,248,6.0,10.0,82,0.00,,---,1.00,VWS V14.01,2013-07-24 01:42:00,
2013-07-23 21:47:00,78.7,73.1,29.63,SW,232,10.0,10.0,83,0.00,,---,1.00,VWS V14.01,2013-07-24 01:47:00,
2013-07-23 21:52:00,78.6,73.0,29.64,SW,223,5.0,10.0,83,0.00,,---,1.00,VWS V14.01,2013-07-24 01:52:00,
2013-07-23 21:57:00,78.6,73.0,29.64,West,264,8.0,11.0,83,0.00,,---,1.00,VWS V14.01,2013-07-24 01:57:00,
2013-07-23 22:00:00,78.6,73.0,29.64,WSW,248,6.0,11.0,83,0.00,,---,1.00,VWS V14.01,2013-07-24 02:00:00,
2013-07-23 22:02:00,78.5,72.9,29.64,WSW,245,5.0,7.0,83,0.00,,---,1.00,VWS V14.01,2013-07-24 02:02:00,
2013-07-23 22:07:00,78.3,72.7,29.64,SW,233,6.0,7.0,83,0.00,,---,1.00,VWS V14.01,2013-07-24 02:07:00,
2013-07-23 22:12:00,78.3,72.7,29.64,West,265,8.0,12.0,83,0.00,,---,1.00,VWS V14.01,2013-07-24 02:12:00,
2013-07-23 22:18:00,78.3,72.7,29.64,WSW,251,5.0,12.0,83,0.00,,---,1.00,VWS V14.01,2013-07-24 02:18:00,
2013-07-23 22:23:00,78.3,72.7,29.64,SW,219,12.0,13.0,83,0.00,,---,1.00,VWS V14.01,2013-07-24 02:23:00,
2013-07-23 22:28:00,78.3,72.4,29.65,WSW,254,10.0,13.0,82,0.00,,---,1.00,VWS V14.01,2013-07-24 02:28:00,
2013-07-23 22:30:00,78.4,72.4,29.64,WSW,248,7.0,13.0,82,0.00,,---,1.00,VWS V14.01,2013-07-24 02:30:00,
2013-07-23 22:33:00,78.4,72.4,29.65,WSW,247,9.0,11.0,82,0.00,,---,1.00,VWS V14.01,2013-07-24 02:33:00,
2013-07-23 22:38:00,78.4,72.4,29.64,WSW,253,3.0,11.0,82,0.00,,---,1.00,VWS V14.01,2013-07-24 02:38:00,
2013-07-23 22:43:00,78.2,72.3,29.64,South,188,6.0,11.0,82,0.00,,---,1.00,VWS V14.01,2013-07-24 02:43:00,
2013-07-23 22:48:00,78.1,72.2,29.64,West,270,7.0,11.0,82,0.00,,---,1.00,VWS V14.01,2013-07-24 02:48:00,
2013-07-23 22:53:00,77.9,72.3,29.64,WSW,240,7.0,11.0,83,0.00,,---,1.00,VWS V14.01,2013-07-24 02:53:00,
2013-07-23 22:58:00,77.9,72.3,29.64,West,265,4.0,11.0,83,0.00,,---,1.00,VWS V14.01,2013-07-24 02:58:00,
2013-07-23 23:00:00,77.9,72.3,29.64,WSW,248,6.0,11.0,83,0.00,,---,1.00,VWS V14.01,2013-07-24 03:00:00,
2013-07-23 23:03:00,77.9,72.0,29.64,SW,235,4.0,9.0,82,0.00,,---,1.00,VWS V14.01,2013-07-24 03:03:00,
2013-07-23 23:08:00,77.9,72.0,29.64,WSW,252,5.0,9.0,82,0.00,,---,1.00,VWS V14.01,2013-07-24 03:08:00,
2013-07-23 23:13:00,77.7,71.8,29.64,SW,233,5.0,9.0,82,0.00,,---,1.00,VWS V14.01,2013-07-24 03:13:00,
2013-07-23 23:18:00,77.5,71.9,29.64,SSE,152,2.0,9.0,83,0.00,,---,1.00,VWS V14.01,2013-07-24 03:18:00,
2013-07-23 23:24:00,77.3,71.7,29.64,SSW,213,1.0,9.0,83,0.00,,---,1.00,VWS V14.01,2013-07-24 03:24:00,
2013-07-23 23:29:00,77.2,71.6,29.64,WSW,245,5.0,9.0,83,0.00,,---,1.00,VWS V14.01,2013-07-24 03:29:00,
2013-07-23 23:30:00,77.3,71.7,29.64,WSW,248,4.0,10.0,83,0.00,,---,1.00,VWS V14.01,2013-07-24 03:30:00,
2013-07-23 23:34:00,77.3,71.7,29.64,SW,224,2.0,8.0,83,0.00,,---,1.00,VWS V14.01,2013-07-24 03:34:00,
2013-07-23 23:39:00,77.3,71.7,29.64,SW,221,1.0,8.0,83,0.00,,---,1.00,VWS V14.01,2013-07-24 03:39:00,
2013-07-23 23:44:00,77.3,72.1,29.64,WSW,238,4.0,8.0,84,0.00,,---,1.00,VWS V14.01,2013-07-24 03:44:00,
2013-07-23 23:49:00,77.4,72.2,29.64,SW,228,3.0,8.0,84,0.00,,---,1.00,VWS V14.01,2013-07-24 03:49:00,
2013-07-23 23:54:00,77.5,72.3,29.64,WSW,258,2.0,8.0,84,0.00,,---,1.00,VWS V14.01,2013-07-24 03:54:00,
2013-07-23 23:59:00,77.6,72.0,29.64,West,264,4.0,8.0,83,0.00,,---,1.00,VWS V14.01,2013-07-24 03:59:00,